Weather History for KLNP - November, 2012

Change the Weather History Date:

Friday, November 23, 2012

  Actual Average Record
Temperature  
Mean Temperature 43 °F -  
Max Temperature 51 °F 50 °F 69 °F (1999)
Min Temperature 35 °F 33 °F 19 °F (2005)
Degree Days  
Heating Degree Days 22    
Moisture  
Dew Point 38 °F    
Average Humidity 75    
Maximum Humidity 100    
Minimum Humidity 66    
Precipitation  
Precipitation 0.00 in - - ()
Sea Level Pressure  
Sea Level Pressure 30.07 in    
Wind  
Wind Speed 10 mph (WSW)    
Max Wind Speed 17 mph    
Max Gust Speed 24 mph    
Visibility 10 miles    
Events Rain    
Averages and records for this station are not official NWS values.
T = Trace of Precipitation, MM = Missing Value Source: NWS Daily Summary

Daily Weather History Graph

Daily Weather History Graph

Search for Another Location

Airport or City:

Trip Planner

Search our weather history database for the weather conditions in past years. The results will help you decide how hot, cold, wet, or windy it might be!

Date:

Astronomy

Nov. 23, 2012 Rise Set
Actual Time 7:17 AM EST 5:15 PM EST
Civil Twilight 6:49 AM EST 5:43 PM EST
Nautical Twilight 6:17 AM EST 6:15 PM EST
Astronomical Twilight 5:46 AM EST 6:46 PM EST
Moon 2:24 PM EST (11/23) 2:40 AM EST (11/23)
Length of Visible Light 10h 54m
Length of Day
9h 58m
Waxing Gibbous, 79% of the Moon is Illuminated
Nov 23
Waxing Gibbous
Nov 28
Full
Dec 6
Last Quarter
Dec 13
New
Dec 20
First Quarter

Hourly Weather History & Observations

Time (EST) Temp. Windchill Dew Point Humidity Pressure Visibility Wind Dir Wind Speed Gust Speed Precip Events Conditions
12:15 AM 44.6 °F 39.2 °F 33.8 °F 66% 30.14 in 10.0 mi SW 10.4 mph - N/A   Clear
12:35 AM 44.6 °F 39.2 °F 33.8 °F 66% 30.14 in 10.0 mi SW 10.4 mph - N/A   Clear
12:55 AM 46.4 °F 42.4 °F 35.6 °F 66% 30.14 in 10.0 mi SW 8.1 mph - N/A   Clear
1:15 AM 44.6 °F 39.2 °F 35.6 °F 71% 30.14 in 10.0 mi SW 10.4 mph - N/A   Clear
1:35 AM 46.4 °F 42.4 °F 35.6 °F 66% 30.14 in 10.0 mi SW 8.1 mph - N/A   Clear
1:55 AM 46.4 °F 42.4 °F 37.4 °F 71% 30.14 in 10.0 mi SW 8.1 mph - N/A   Clear
2:15 AM 46.4 °F 42.4 °F 37.4 °F 71% 30.15 in 10.0 mi SW 8.1 mph - N/A   Clear
2:35 AM 46.4 °F 42.4 °F 37.4 °F 71% 30.15 in 10.0 mi SW 8.1 mph - N/A   Clear
2:55 AM 46.4 °F 41.9 °F 37.4 °F 71% 30.15 in 10.0 mi SW 9.2 mph - N/A   Clear
3:15 AM 46.4 °F 42.9 °F 37.4 °F 71% 30.15 in 10.0 mi SW 6.9 mph - N/A   Clear
3:35 AM 46.4 °F 41.5 °F 37.4 °F 71% 30.15 in 10.0 mi SW 10.4 mph - N/A   Clear
3:55 AM 46.4 °F 42.9 °F 37.4 °F 71% 30.14 in 10.0 mi SW 6.9 mph - N/A   Clear
4:15 AM 44.6 °F 41.4 °F 37.4 °F 76% 30.14 in 10.0 mi SW 5.8 mph - N/A   Clear
4:35 AM 44.6 °F 39.7 °F 37.4 °F 76% 30.12 in 10.0 mi SSW 9.2 mph - N/A   Clear
4:55 AM 46.4 °F 42.9 °F 37.4 °F 71% 30.12 in 10.0 mi SSW 6.9 mph - N/A   Clear
5:15 AM 46.4 °F 42.9 °F 37.4 °F 71% 30.12 in 10.0 mi SSW 6.9 mph - N/A   Clear
5:35 AM 46.4 °F 42.9 °F 39.2 °F 76% 30.12 in 10.0 mi SW 6.9 mph - N/A   Clear
5:55 AM 46.4 °F 42.9 °F 39.2 °F 76% 30.12 in 10.0 mi SSW 6.9 mph - N/A   Clear
6:15 AM 46.4 °F 41.9 °F 39.2 °F 76% 30.11 in 10.0 mi SSW 9.2 mph - N/A   Clear
6:35 AM 46.4 °F 41.9 °F 37.4 °F 71% 30.11 in 10.0 mi SW 9.2 mph - N/A   Clear
7:15 AM 46.4 °F 40.4 °F 39.2 °F 76% 30.11 in 10.0 mi SW 13.8 mph - N/A   Clear
7:35 AM 46.4 °F 40.7 °F 39.2 °F 76% 30.10 in 10.0 mi SW 12.7 mph - N/A   Clear
7:55 AM 46.4 °F 41.9 °F 39.2 °F 76% 30.10 in 10.0 mi SW 9.2 mph - N/A   Clear
8:15 AM 50.0 °F - 41.0 °F 71% 30.09 in 10.0 mi SW 9.2 mph 16.1 mph N/A   Clear
8:35 AM 50.0 °F - 41.0 °F 71% 30.09 in 10.0 mi SW 8.1 mph - N/A   Clear
8:55 AM 50.0 °F - 39.2 °F 66% 30.07 in 10.0 mi SW 8.1 mph - N/A   Clear
9:15 AM 50.0 °F - 41.0 °F 71% 30.08 in 10.0 mi SW 6.9 mph - N/A   Clear
9:35 AM 50.0 °F - 41.0 °F 71% 30.08 in 10.0 mi WSW 9.2 mph - N/A   Clear
9:55 AM 50.0 °F - 41.0 °F 71% 30.08 in 10.0 mi SW 10.4 mph - N/A   Clear
10:15 AM 50.0 °F - 41.0 °F 71% 30.07 in 10.0 mi SW 11.5 mph 20.7 mph N/A   Scattered Clouds
10:35 AM 50.0 °F - 41.0 °F 71% 30.07 in 10.0 mi SW 12.7 mph 19.6 mph N/A   Overcast
10:55 AM 50.0 °F - 41.0 °F 71% 30.05 in 10.0 mi SW 12.7 mph - N/A   Overcast
11:15 AM 50.0 °F - 41.0 °F 71% 30.05 in 10.0 mi SW 9.2 mph - N/A Rain Rain
11:35 AM 50.0 °F - 41.0 °F 71% 30.04 in 10.0 mi SW 11.5 mph - N/A   Overcast
11:55 AM 50.0 °F - 41.0 °F 71% 30.02 in 10.0 mi SW 12.7 mph - N/A   Overcast
12:15 PM 51.8 °F - 41.0 °F 67% 30.02 in 10.0 mi SW 16.1 mph 21.9 mph N/A   Overcast
12:35 PM 50.0 °F - 41.0 °F 71% 30.01 in 10.0 mi SW 17.3 mph 23.0 mph N/A   Overcast
12:55 PM 50.0 °F - 41.0 °F 71% 30.00 in 10.0 mi SW 13.8 mph 21.9 mph N/A   Overcast
1:15 PM 50.0 °F - 41.0 °F 71% 30.00 in 10.0 mi WSW 15.0 mph 23.0 mph N/A   Overcast
1:35 PM 50.0 °F - 42.8 °F 76% 30.00 in 10.0 mi WSW 11.5 mph 20.7 mph N/A   Overcast
1:55 PM 50.0 °F - 42.8 °F 76% 30.00 in 10.0 mi West 6.9 mph - N/A   Overcast
2:15 PM 50.0 °F - 42.8 °F 76% 30.00 in 10.0 mi West 6.9 mph - N/A   Overcast
2:35 PM 50.0 °F - 42.8 °F 76% 30.00 in 10.0 mi West 5.8 mph - N/A   Overcast
2:55 PM 48.2 °F - 44.6 °F 87% 30.00 in 5.0 mi West 10.4 mph - N/A   Overcast
3:15 PM 46.4 °F 43.5 °F 46.4 °F 100% 30.00 in 3.0 mi West 5.8 mph - N/A   Drizzle
3:35 PM 46.4 °F 45.2 °F 46.4 °F 100% 30.01 in 2.5 mi WNW 3.5 mph - N/A   Drizzle
3:55 PM 46.4 °F 42.9 °F 46.4 °F 100% 30.01 in 10.0 mi West 6.9 mph - N/A   Overcast
4:15 PM 46.4 °F 41.9 °F 46.4 °F 100% 30.02 in 10.0 mi West 9.2 mph - N/A   Overcast
4:35 PM 46.4 °F 41.1 °F 41.0 °F 81% 30.02 in 10.0 mi WSW 11.5 mph 16.1 mph N/A   Mostly Cloudy
4:55 PM 46.4 °F 41.5 °F 37.4 °F 71% 30.02 in 10.0 mi West 10.4 mph - N/A   Clear
5:15 PM 44.6 °F 39.2 °F 33.8 °F 66% 30.04 in 10.0 mi West 10.4 mph 24.2 mph N/A   Clear
5:35 PM 42.8 °F 34.8 °F 35.6 °F 76% 30.04 in 10.0 mi West 17.3 mph 20.7 mph N/A   Scattered Clouds
5:55 PM 42.8 °F 36.2 °F 35.6 °F 76% 30.04 in 10.0 mi West 12.7 mph 20.7 mph N/A   Scattered Clouds
6:15 PM 42.8 °F 36.6 °F 35.6 °F 76% 30.05 in 10.0 mi West 11.5 mph 19.6 mph N/A   Overcast
6:35 PM 42.8 °F 37.0 °F 35.6 °F 76% 30.05 in 10.0 mi West 10.4 mph 16.1 mph N/A   Overcast
6:55 PM 42.8 °F 37.5 °F 35.6 °F 76% 30.05 in 10.0 mi West 9.2 mph 16.1 mph N/A   Mostly Cloudy
7:15 PM 41.0 °F 35.8 °F 33.8 °F 76% 30.05 in 10.0 mi West 8.1 mph 19.6 mph N/A   Scattered Clouds
7:35 PM 41.0 °F 34.3 °F 32.0 °F 70% 30.05 in 10.0 mi WNW 11.5 mph 16.1 mph N/A   Scattered Clouds
7:55 PM 41.0 °F 35.8 °F 32.0 °F 70% 30.06 in 10.0 mi WNW 8.1 mph - N/A   Scattered Clouds
8:15 PM 41.0 °F 34.3 °F 32.0 °F 70% 30.06 in 10.0 mi WNW 11.5 mph 17.3 mph N/A   Clear
8:35 PM 39.2 °F 32.5 °F 32.0 °F 75% 30.07 in 10.0 mi WNW 10.4 mph 16.1 mph N/A   Clear
8:55 PM 39.2 °F 31.6 °F 32.0 °F 75% 30.06 in 10.0 mi WNW 12.7 mph 19.6 mph N/A   Scattered Clouds
9:15 PM 39.2 °F 31.6 °F 32.0 °F 75% 30.06 in 10.0 mi WNW 12.7 mph 18.4 mph N/A   Mostly Cloudy
9:35 PM 37.4 °F 31.4 °F 32.0 °F 81% 30.05 in 10.0 mi WNW 8.1 mph - N/A   Overcast
9:55 PM 37.4 °F 30.8 °F 32.0 °F 81% 30.05 in 10.0 mi WNW 9.2 mph - N/A   Overcast
10:15 PM 37.4 °F 30.3 °F 32.0 °F 81% 30.05 in 10.0 mi WNW 10.4 mph 17.3 mph N/A   Overcast
10:35 PM 37.4 °F 29.3 °F 32.0 °F 81% 30.05 in 10.0 mi NW 12.7 mph 16.1 mph N/A   Overcast
10:55 PM 37.4 °F 31.4 °F 32.0 °F 81% 30.05 in 10.0 mi WNW 8.1 mph - N/A   Overcast
11:15 PM 35.6 °F 27.5 °F 32.0 °F 87% 30.05 in 10.0 mi West 11.5 mph 16.1 mph N/A   Overcast
11:35 PM 35.6 °F 28.0 °F 30.2 °F 81% 30.05 in 10.0 mi WNW 10.4 mph - N/A   Overcast
11:55 PM 35.6 °F 27.5 °F 30.2 °F 81% 30.05 in 10.0 mi WNW 11.5 mph 19.6 mph N/A   Overcast